contact:dominique.lefevre@mio.osupytheas.fr, maurice.libes@osupytheas.fr, didier.mallarino@osupytheas.fr
Project:EMSO http://www.emso-fr.org/EMSO-France
Depth: 2436.0 m
Title:EMSO Ligure Ouest : Data MII capteur CSTAR
DateTime,Latitude,Longitude,Instrument_Serial,Reference_Counts,Signal_Counts,Corrected_Signal_raw_counts,Calculated_Beam_c_inverse_meters,Internal_thermistor_counts
DateTime,Latitude,Longitude,Instrument_Serial,Reference_Counts,Signal_Counts,Corrected_Signal_raw_counts,Calculated_Beam_c_inverse_meters,Internal_thermistor_counts
2019-10-08T00:00:56,42.805,6.029,CST-1368DR,7659,10723,15342,0.071,551
2019-10-08T00:03:58,42.805,6.029,CST-1368DR,7659,10724,15343,0.071,550
2019-10-08T00:07:00,42.805,6.029,CST-1368DR,7659,10723,15341,0.071,551
2019-10-08T00:10:01,42.805,6.029,CST-1368DR,7659,10725,15344,0.070,551
2019-10-08T00:13:03,42.805,6.029,CST-1368DR,7659,10724,15343,0.071,551
2019-10-08T00:16:05,42.805,6.029,CST-1368DR,7658,10724,15345,0.070,551
2019-10-08T00:19:06,42.805,6.029,CST-1368DR,7658,10724,15345,0.070,551
2019-10-08T00:22:08,42.805,6.029,CST-1368DR,7658,10723,15344,0.070,551
2019-10-08T00:25:10,42.805,6.029,CST-1368DR,7658,10722,15342,0.071,551
2019-10-08T00:28:11,42.805,6.029,CST-1368DR,7659,10724,15343,0.071,551
2019-10-08T00:31:13,42.805,6.029,CST-1368DR,7658,10723,15343,0.071,551
2019-10-08T00:34:15,42.805,6.029,CST-1368DR,7658,10724,15344,0.070,551
2019-10-08T00:37:17,42.805,6.029,CST-1368DR,7658,10723,15343,0.071,550
2019-10-08T00:40:18,42.805,6.029,CST-1368DR,7658,10723,15343,0.071,551
2019-10-08T00:43:20,42.805,6.029,CST-1368DR,7658,10722,15342,0.071,551
2019-10-08T00:46:21,42.805,6.029,CST-1368DR,7658,10723,15344,0.070,550
2019-10-08T00:49:23,42.805,6.029,CST-1368DR,7658,10723,15343,0.071,551
2019-10-08T00:52:25,42.805,6.029,CST-1368DR,7658,10723,15343,0.071,551
2019-10-08T00:55:26,42.805,6.029,CST-1368DR,7658,10723,15343,0.071,551
2019-10-08T00:58:28,42.805,6.029,CST-1368DR,7658,10723,15343,0.071,551
2019-10-08T01:01:30,42.805,6.029,CST-1368DR,7658,10724,15344,0.070,551
2019-10-08T01:04:31,42.805,6.029,CST-1368DR,7658,10723,15343,0.071,551
2019-10-08T01:07:33,42.805,6.029,CST-1368DR,7658,10722,15342,0.071,551
2019-10-08T01:10:35,42.805,6.029,CST-1368DR,7658,10723,15344,0.070,551
2019-10-08T01:13:37,42.805,6.029,CST-1368DR,7658,10723,15343,0.071,551
2019-10-08T01:16:38,42.805,6.029,CST-1368DR,7658,10723,15343,0.071,551
2019-10-08T01:19:40,42.805,6.029,CST-1368DR,7658,10723,15343,0.071,551
2019-10-08T01:22:42,42.805,6.029,CST-1368DR,7658,10723,15343,0.071,551
2019-10-08T01:25:43,42.805,6.029,CST-1368DR,7658,10724,15345,0.070,550
2019-10-08T01:28:45,42.805,6.029,CST-1368DR,7658,10723,15343,0.071,551
2019-10-08T01:31:47,42.805,6.029,CST-1368DR,7658,10721,15341,0.071,551
2019-10-08T01:34:48,42.805,6.029,CST-1368DR,7658,10723,15343,0.071,550
2019-10-08T01:37:50,42.805,6.029,CST-1368DR,7658,10720,15339,0.072,550
2019-10-08T01:40:52,42.805,6.029,CST-1368DR,7658,10723,15344,0.070,551
2019-10-08T01:43:53,42.805,6.029,CST-1368DR,7658,10723,15343,0.071,551
2019-10-08T01:46:55,42.805,6.029,CST-1368DR,7658,10721,15340,0.071,551
2019-10-08T01:49:57,42.805,6.029,CST-1368DR,7658,10722,15342,0.071,551
2019-10-08T01:52:58,42.805,6.029,CST-1368DR,7658,10723,15343,0.071,551
2019-10-08T01:56:00,42.805,6.029,CST-1368DR,7658,10722,15341,0.071,551
2019-10-08T01:59:02,42.805,6.029,CST-1368DR,7658,10722,15341,0.071,551
2019-10-08T02:02:03,42.805,6.029,CST-1368DR,7658,10723,15343,0.071,551
2019-10-08T02:05:05,42.805,6.029,CST-1368DR,7658,10723,15343,0.071,551
2019-10-08T02:08:07,42.805,6.029,CST-1368DR,7658,10723,15343,0.071,551
2019-10-08T02:11:08,42.805,6.029,CST-1368DR,7658,10721,15340,0.071,551
2019-10-08T02:14:10,42.805,6.029,CST-1368DR,7658,10721,15341,0.071,551
2019-10-08T02:17:12,42.805,6.029,CST-1368DR,7658,10721,15341,0.071,551
2019-10-08T02:20:13,42.805,6.029,CST-1368DR,7658,10721,15341,0.071,551
2019-10-08T02:23:15,42.805,6.029,CST-1368DR,7658,10721,15341,0.071,551
2019-10-08T02:26:17,42.805,6.029,CST-1368DR,7658,10721,15341,0.071,551
2019-10-08T02:29:18,42.805,6.029,CST-1368DR,7658,10722,15341,0.071,550
2019-10-08T02:32:20,42.805,6.029,CST-1368DR,7658,10722,15342,0.071,551
2019-10-08T02:35:22,42.805,6.029,CST-1368DR,7658,10721,15341,0.071,551
2019-10-08T02:38:23,42.805,6.029,CST-1368DR,7658,10721,15340,0.071,551
2019-10-08T02:41:25,42.805,6.029,CST-1368DR,7658,10721,15341,0.071,551
2019-10-08T02:44:26,42.805,6.029,CST-1368DR,7658,10721,15341,0.071,550
2019-10-08T02:47:28,42.805,6.029,CST-1368DR,7658,10721,15341,0.071,551
2019-10-08T02:50:30,42.805,6.029,CST-1368DR,7658,10720,15339,0.072,551
2019-10-08T02:53:31,42.805,6.029,CST-1368DR,7658,10720,15339,0.072,551
2019-10-08T02:56:33,42.805,6.029,CST-1368DR,7657,10720,15341,0.071,550
2019-10-08T02:59:35,42.805,6.029,CST-1368DR,7658,10720,15339,0.072,551
2019-10-08T03:02:36,42.805,6.029,CST-1368DR,7658,10720,15339,0.072,551
2019-10-08T03:05:38,42.805,6.029,CST-1368DR,7658,10721,15340,0.071,551
2019-10-08T03:08:40,42.805,6.029,CST-1368DR,7658,10721,15340,0.071,551
2019-10-08T03:11:41,42.805,6.029,CST-1368DR,7657,10720,15341,0.071,551
2019-10-08T03:14:43,42.805,6.029,CST-1368DR,7657,10721,15342,0.071,551
2019-10-08T03:17:45,42.805,6.029,CST-1368DR,7657,10721,15342,0.071,551
2019-10-08T03:20:46,42.805,6.029,CST-1368DR,7657,10719,15340,0.071,550
2019-10-08T03:23:48,42.805,6.029,CST-1368DR,7658,10721,15341,0.071,551
2019-10-08T03:26:50,42.805,6.029,CST-1368DR,7657,10721,15342,0.071,551
2019-10-08T03:29:51,42.805,6.029,CST-1368DR,7657,10720,15341,0.071,551
2019-10-08T03:32:53,42.805,6.029,CST-1368DR,7657,10721,15342,0.071,551
2019-10-08T03:35:54,42.805,6.029,CST-1368DR,7657,10721,15342,0.071,551
2019-10-08T03:38:56,42.805,6.029,CST-1368DR,7657,10720,15341,0.071,550
2019-10-08T03:41:58,42.805,6.029,CST-1368DR,7657,10719,15340,0.071,551
2019-10-08T03:44:59,42.805,6.029,CST-1368DR,7657,10718,15338,0.072,551
2019-10-08T03:48:01,42.805,6.029,CST-1368DR,7657,10719,15339,0.072,551
2019-10-08T03:51:03,42.805,6.029,CST-1368DR,7657,10719,15340,0.071,551
2019-10-08T03:54:04,42.805,6.029,CST-1368DR,7657,10720,15341,0.071,551
2019-10-08T03:57:06,42.805,6.029,CST-1368DR,7657,10721,15342,0.071,551
2019-10-08T04:00:08,42.805,6.029,CST-1368DR,7657,10720,15341,0.071,551
2019-10-08T04:03:09,42.805,6.029,CST-1368DR,7657,10720,15341,0.071,551
2019-10-08T04:06:11,42.805,6.029,CST-1368DR,7657,10720,15340,0.071,551
2019-10-08T04:09:13,42.805,6.029,CST-1368DR,7657,10720,15341,0.071,550
2019-10-08T04:12:14,42.805,6.029,CST-1368DR,7657,10720,15341,0.071,551
2019-10-08T04:15:16,42.805,6.029,CST-1368DR,7657,10719,15340,0.071,551
2019-10-08T04:18:18,42.805,6.029,CST-1368DR,7657,10719,15340,0.071,551
2019-10-08T04:21:19,42.805,6.029,CST-1368DR,7657,10720,15341,0.071,551
2019-10-08T04:24:21,42.805,6.029,CST-1368DR,7657,10719,15340,0.071,551
2019-10-08T04:27:22,42.805,6.029,CST-1368DR,7657,10720,15341,0.071,551
2019-10-08T04:30:24,42.805,6.029,CST-1368DR,7657,10720,15340,0.071,551
2019-10-08T04:33:26,42.805,6.029,CST-1368DR,7657,10718,15338,0.072,551
2019-10-08T04:36:27,42.805,6.029,CST-1368DR,7657,10717,15337,0.072,550
2019-10-08T04:39:29,42.805,6.029,CST-1368DR,7657,10719,15339,0.072,551
2019-10-08T04:42:31,42.805,6.029,CST-1368DR,7657,10720,15340,0.071,551
2019-10-08T04:45:32,42.805,6.029,CST-1368DR,7657,10719,15339,0.072,551
2019-10-08T04:48:34,42.805,6.029,CST-1368DR,7657,10717,15336,0.072,551
2019-10-08T04:51:36,42.805,6.029,CST-1368DR,7657,10717,15336,0.072,551
2019-10-08T04:54:37,42.805,6.029,CST-1368DR,7657,10720,15340,0.071,551
2019-10-08T04:57:39,42.805,6.029,CST-1368DR,7657,10716,15335,0.073,551
2019-10-08T05:00:41,42.805,6.029,CST-1368DR,7657,10720,15341,0.071,551
2019-10-08T05:03:42,42.805,6.029,CST-1368DR,7657,10718,15338,0.072,551
2019-10-08T05:06:44,42.805,6.029,CST-1368DR,7657,10718,15338,0.072,551
2019-10-08T05:09:46,42.805,6.029,CST-1368DR,7657,10717,15336,0.072,551
2019-10-08T05:12:48,42.805,6.029,CST-1368DR,7657,10715,15334,0.073,551
2019-10-08T05:15:49,42.805,6.029,CST-1368DR,7657,10717,15336,0.072,551
2019-10-08T05:18:51,42.805,6.029,CST-1368DR,7657,10718,15338,0.072,551
2019-10-08T05:21:53,42.805,6.029,CST-1368DR,7657,10716,15335,0.073,551
2019-10-08T05:24:54,42.805,6.029,CST-1368DR,7657,10717,15337,0.072,551
2019-10-08T05:27:56,42.805,6.029,CST-1368DR,7657,10716,15336,0.072,551
2019-10-08T05:30:57,42.805,6.029,CST-1368DR,7657,10718,15337,0.072,551
2019-10-08T05:33:59,42.805,6.029,CST-1368DR,7657,10714,15332,0.073,551
2019-10-08T05:37:01,42.805,6.029,CST-1368DR,7657,10718,15338,0.072,551
2019-10-08T05:40:02,42.805,6.029,CST-1368DR,7657,10717,15337,0.072,551
2019-10-08T05:43:04,42.805,6.029,CST-1368DR,7657,10717,15337,0.072,551
2019-10-08T05:46:06,42.805,6.029,CST-1368DR,7657,10717,15337,0.072,551
2019-10-08T05:49:07,42.805,6.029,CST-1368DR,7657,10717,15336,0.072,551
2019-10-08T05:52:09,42.805,6.029,CST-1368DR,7657,10717,15336,0.072,551
2019-10-08T05:55:11,42.805,6.029,CST-1368DR,7656,10717,15338,0.072,551
2019-10-08T05:58:12,42.805,6.029,CST-1368DR,7657,10718,15338,0.072,551
2019-10-08T06:01:14,42.805,6.029,CST-1368DR,7657,10718,15338,0.072,551
2019-10-08T06:04:16,42.805,6.029,CST-1368DR,7656,10716,15337,0.072,551
2019-10-08T06:07:17,42.805,6.029,CST-1368DR,7657,10716,15335,0.073,550
2019-10-08T06:10:19,42.805,6.029,CST-1368DR,7656,10714,15334,0.073,550
2019-10-08T06:13:21,42.805,6.029,CST-1368DR,7656,10716,15336,0.072,551
2019-10-08T06:16:22,42.805,6.029,CST-1368DR,7656,10716,15337,0.072,551
2019-10-08T06:19:24,42.805,6.029,CST-1368DR,7656,10716,15336,0.072,551
2019-10-08T06:22:25,42.805,6.029,CST-1368DR,7656,10716,15337,0.072,551
2019-10-08T06:25:27,42.805,6.029,CST-1368DR,7656,10717,15339,0.072,551
2019-10-08T06:28:29,42.805,6.029,CST-1368DR,7656,10711,15330,0.074,551
2019-10-08T06:31:30,42.805,6.029,CST-1368DR,7656,10714,15334,0.073,551
2019-10-08T06:34:32,42.805,6.029,CST-1368DR,7656,10715,15336,0.072,551
2019-10-08T06:37:34,42.805,6.029,CST-1368DR,7656,10716,15337,0.072,551
2019-10-08T06:40:35,42.805,6.029,CST-1368DR,7656,10716,15337,0.072,551
2019-10-08T06:43:37,42.805,6.029,CST-1368DR,7656,10713,15332,0.073,551
2019-10-08T06:46:39,42.805,6.029,CST-1368DR,7656,10717,15338,0.072,550
2019-10-08T06:49:40,42.805,6.029,CST-1368DR,7656,10716,15337,0.072,551
2019-10-08T06:52:42,42.805,6.029,CST-1368DR,7656,10716,15336,0.072,550
2019-10-08T06:55:44,42.805,6.029,CST-1368DR,7656,10716,15337,0.072,550
2019-10-08T06:58:45,42.805,6.029,CST-1368DR,7656,10714,15334,0.073,551
2019-10-08T07:01:47,42.805,6.029,CST-1368DR,7656,10716,15337,0.072,551
2019-10-08T07:04:48,42.805,6.029,CST-1368DR,7656,10714,15334,0.073,551
2019-10-08T07:07:50,42.805,6.029,CST-1368DR,7656,10714,15334,0.073,551
2019-10-08T07:10:52,42.805,6.029,CST-1368DR,7656,10711,15329,0.074,551
2019-10-08T07:13:53,42.805,6.029,CST-1368DR,7656,10713,15333,0.073,551
2019-10-08T07:16:55,42.805,6.029,CST-1368DR,7656,10713,15332,0.073,550
2019-10-08T07:19:57,42.805,6.029,CST-1368DR,7656,10714,15335,0.073,551
2019-10-08T07:22:58,42.805,6.029,CST-1368DR,7656,10713,15333,0.073,550
2019-10-08T07:26:00,42.805,6.029,CST-1368DR,7656,10714,15334,0.073,551
2019-10-08T07:29:02,42.805,6.029,CST-1368DR,7656,10713,15332,0.073,551
2019-10-08T07:32:03,42.805,6.029,CST-1368DR,7656,10713,15333,0.073,551
2019-10-08T07:35:05,42.805,6.029,CST-1368DR,7656,10715,15336,0.072,551
2019-10-08T07:38:07,42.805,6.029,CST-1368DR,7656,10715,15335,0.073,551
2019-10-08T07:41:08,42.805,6.029,CST-1368DR,7656,10715,15335,0.073,551
2019-10-08T07:44:10,42.805,6.029,CST-1368DR,7656,10714,15335,0.073,551
2019-10-08T07:47:11,42.805,6.029,CST-1368DR,7656,10713,15332,0.073,551
2019-10-08T07:50:13,42.805,6.029,CST-1368DR,7656,10709,15327,0.075,551
2019-10-08T07:53:15,42.805,6.029,CST-1368DR,7656,10714,15334,0.073,551
2019-10-08T07:56:16,42.805,6.029,CST-1368DR,7656,10712,15331,0.074,551
2019-10-08T07:59:18,42.805,6.029,CST-1368DR,7656,10715,15335,0.073,551
2019-10-08T08:02:20,42.805,6.029,CST-1368DR,7656,10711,15330,0.074,550
2019-10-08T08:05:21,42.805,6.029,CST-1368DR,7656,10713,15333,0.073,551
2019-10-08T08:08:23,42.805,6.029,CST-1368DR,7656,10712,15331,0.074,551
2019-10-08T08:11:25,42.805,6.029,CST-1368DR,7656,10715,15335,0.073,551
2019-10-08T08:14:27,42.805,6.029,CST-1368DR,7656,10714,15334,0.073,551
2019-10-08T08:17:28,42.805,6.029,CST-1368DR,7656,10714,15335,0.073,551
2019-10-08T08:20:30,42.805,6.029,CST-1368DR,7656,10713,15332,0.073,551
2019-10-08T08:23:32,42.805,6.029,CST-1368DR,7656,10714,15334,0.073,551
2019-10-08T08:26:33,42.805,6.029,CST-1368DR,7656,10714,15335,0.073,551
2019-10-08T08:29:35,42.805,6.029,CST-1368DR,7656,10712,15331,0.074,551
2019-10-08T08:32:37,42.805,6.029,CST-1368DR,7655,10712,15334,0.073,551
2019-10-08T08:35:38,42.805,6.029,CST-1368DR,7655,10714,15336,0.072,551
2019-10-08T08:38:40,42.805,6.029,CST-1368DR,7655,10711,15332,0.073,551
2019-10-08T08:41:41,42.805,6.029,CST-1368DR,7656,10712,15332,0.073,551
2019-10-08T08:44:43,42.805,6.029,CST-1368DR,7655,10714,15335,0.073,551
2019-10-08T08:47:45,42.805,6.029,CST-1368DR,7655,10710,15330,0.074,551
2019-10-08T08:50:46,42.805,6.029,CST-1368DR,7656,10713,15332,0.073,551
2019-10-08T08:53:48,42.805,6.029,CST-1368DR,7655,10711,15332,0.073,551
2019-10-08T08:56:50,42.805,6.029,CST-1368DR,7655,10706,15324,0.076,551
2019-10-08T08:59:51,42.805,6.029,CST-1368DR,7655,10707,15326,0.075,551
2019-10-08T09:02:53,42.805,6.029,CST-1368DR,7655,10714,15336,0.072,551
2019-10-08T09:05:55,42.805,6.029,CST-1368DR,7655,10712,15333,0.073,551
2019-10-08T09:08:56,42.805,6.029,CST-1368DR,7655,10714,15336,0.072,551
2019-10-08T09:11:58,42.805,6.029,CST-1368DR,7655,10712,15333,0.073,551
2019-10-08T09:15:00,42.805,6.029,CST-1368DR,7655,10714,15336,0.072,551
2019-10-08T09:18:01,42.805,6.029,CST-1368DR,7655,10713,15335,0.073,551
2019-10-08T09:21:03,42.805,6.029,CST-1368DR,7655,10714,15336,0.072,550
2019-10-08T09:24:05,42.805,6.029,CST-1368DR,7655,10713,15335,0.073,551
2019-10-08T09:27:06,42.805,6.029,CST-1368DR,7655,10712,15333,0.073,551
2019-10-08T09:30:08,42.805,6.029,CST-1368DR,7655,10714,15336,0.072,551
2019-10-08T09:33:10,42.805,6.029,CST-1368DR,7655,10714,15335,0.073,551
2019-10-08T09:36:11,42.805,6.029,CST-1368DR,7655,10714,15336,0.072,551
2019-10-08T09:39:13,42.805,6.029,CST-1368DR,7655,10714,15336,0.072,551
2019-10-08T09:42:14,42.805,6.029,CST-1368DR,7655,10710,15330,0.074,551
2019-10-08T09:45:16,42.805,6.029,CST-1368DR,7655,10715,15338,0.072,550
2019-10-08T09:48:18,42.805,6.029,CST-1368DR,7655,10712,15333,0.073,551
2019-10-08T09:51:19,42.805,6.029,CST-1368DR,7655,10715,15337,0.072,551
2019-10-08T09:54:21,42.805,6.029,CST-1368DR,7655,10715,15337,0.072,551
2019-10-08T09:57:23,42.805,6.029,CST-1368DR,7655,10713,15334,0.073,551
2019-10-08T10:00:24,42.805,6.029,CST-1368DR,7655,10714,15336,0.072,551
2019-10-08T10:03:26,42.805,6.029,CST-1368DR,7655,10715,15337,0.072,551
2019-10-08T10:06:28,42.805,6.029,CST-1368DR,7655,10715,15337,0.072,551
2019-10-08T10:09:29,42.805,6.029,CST-1368DR,7655,10717,15340,0.071,550
2019-10-08T10:12:31,42.805,6.029,CST-1368DR,7655,10715,15338,0.072,551
2019-10-08T10:15:33,42.805,6.029,CST-1368DR,7655,10716,15339,0.072,551
2019-10-08T10:18:34,42.805,6.029,CST-1368DR,7655,10712,15334,0.073,551
2019-10-08T10:21:36,42.805,6.029,CST-1368DR,7655,10712,15334,0.073,551
2019-10-08T10:24:38,42.805,6.029,CST-1368DR,7655,10715,15337,0.072,551
2019-10-08T10:27:39,42.805,6.029,CST-1368DR,7655,10714,15336,0.072,551
2019-10-08T10:30:41,42.805,6.029,CST-1368DR,7655,10712,15333,0.073,551
2019-10-08T10:33:42,42.805,6.029,CST-1368DR,7655,10715,15338,0.072,551
2019-10-08T10:36:44,42.805,6.029,CST-1368DR,7655,10715,15338,0.072,551
2019-10-08T10:39:46,42.805,6.029,CST-1368DR,7655,10716,15338,0.072,551
2019-10-08T10:42:47,42.805,6.029,CST-1368DR,7655,10715,15337,0.072,551
2019-10-08T10:45:49,42.805,6.029,CST-1368DR,7655,10715,15338,0.072,551
2019-10-08T10:48:51,42.805,6.029,CST-1368DR,7655,10715,15338,0.072,551
2019-10-08T10:51:52,42.805,6.029,CST-1368DR,7655,10716,15339,0.072,551
2019-10-08T10:54:54,42.805,6.029,CST-1368DR,7655,10715,15338,0.072,551
2019-10-08T10:57:56,42.805,6.029,CST-1368DR,7655,10713,15334,0.073,551
2019-10-08T11:00:57,42.805,6.029,CST-1368DR,7655,10714,15336,0.072,551
2019-10-08T11:03:59,42.805,6.029,CST-1368DR,7655,10714,15336,0.072,551
2019-10-08T11:07:01,42.805,6.029,CST-1368DR,7655,10717,15340,0.071,551
2019-10-08T11:10:03,42.805,6.029,CST-1368DR,7655,10713,15335,0.073,551
2019-10-08T11:13:04,42.805,6.029,CST-1368DR,7655,10715,15337,0.072,550
2019-10-08T11:16:06,42.805,6.029,CST-1368DR,7655,10714,15336,0.072,550
2019-10-08T11:19:08,42.805,6.029,CST-1368DR,7655,10715,15337,0.072,551
2019-10-08T11:22:09,42.805,6.029,CST-1368DR,7655,10717,15340,0.071,551
2019-10-08T11:25:11,42.805,6.029,CST-1368DR,7655,10715,15337,0.072,551
2019-10-08T11:28:13,42.805,6.029,CST-1368DR,7655,10711,15332,0.073,551
2019-10-08T11:31:14,42.805,6.029,CST-1368DR,7655,10716,15339,0.072,551
2019-10-08T11:34:16,42.805,6.029,CST-1368DR,7655,10715,15337,0.072,551
2019-10-08T11:37:18,42.805,6.029,CST-1368DR,7655,10716,15339,0.072,551
2019-10-08T11:40:19,42.805,6.029,CST-1368DR,7655,10716,15338,0.072,551
2019-10-08T11:43:21,42.805,6.029,CST-1368DR,7655,10716,15339,0.072,551
2019-10-08T11:46:22,42.805,6.029,CST-1368DR,7655,10716,15339,0.072,551
2019-10-08T11:49:24,42.805,6.029,CST-1368DR,7655,10715,15338,0.072,551
2019-10-08T11:52:26,42.805,6.029,CST-1368DR,7655,10717,15340,0.071,551
2019-10-08T11:55:27,42.805,6.029,CST-1368DR,7655,10717,15341,0.071,551
2019-10-08T11:58:29,42.805,6.029,CST-1368DR,7655,10717,15340,0.071,551
2019-10-08T12:01:31,42.805,6.029,CST-1368DR,7655,10717,15340,0.071,551
2019-10-08T12:04:32,42.805,6.029,CST-1368DR,7655,10716,15339,0.072,551
2019-10-08T12:07:34,42.805,6.029,CST-1368DR,7655,10715,15337,0.072,551
2019-10-08T12:10:36,42.805,6.029,CST-1368DR,7655,10715,15337,0.072,551
2019-10-08T12:13:37,42.805,6.029,CST-1368DR,7655,10718,15342,0.071,551
2019-10-08T12:16:39,42.805,6.029,CST-1368DR,7654,10716,15341,0.071,551
2019-10-08T12:19:41,42.805,6.029,CST-1368DR,7655,10717,15340,0.071,551
2019-10-08T12:22:42,42.805,6.029,CST-1368DR,7654,10717,15342,0.071,551
2019-10-08T12:25:44,42.805,6.029,CST-1368DR,7654,10716,15341,0.071,551
2019-10-08T12:28:45,42.805,6.029,CST-1368DR,7654,10710,15333,0.073,551
2019-10-08T12:31:47,42.805,6.029,CST-1368DR,7654,10715,15339,0.072,551
2019-10-08T12:34:49,42.805,6.029,CST-1368DR,7654,10714,15338,0.072,551
2019-10-08T12:37:50,42.805,6.029,CST-1368DR,7654,10715,15339,0.072,551
2019-10-08T12:40:52,42.805,6.029,CST-1368DR,7654,10716,15341,0.071,551
2019-10-08T12:43:54,42.805,6.029,CST-1368DR,7654,10717,15342,0.071,551
2019-10-08T12:46:55,42.805,6.029,CST-1368DR,7654,10716,15340,0.071,551
2019-10-08T12:49:57,42.805,6.029,CST-1368DR,7654,10715,15340,0.071,551
2019-10-08T12:52:59,42.805,6.029,CST-1368DR,7654,10716,15341,0.071,551
2019-10-08T12:56:00,42.805,6.029,CST-1368DR,7654,10717,15342,0.071,551
2019-10-08T12:59:02,42.805,6.029,CST-1368DR,7654,10717,15342,0.071,551
2019-10-08T13:02:03,42.805,6.029,CST-1368DR,7654,10714,15338,0.072,551
2019-10-08T13:05:05,42.805,6.029,CST-1368DR,7654,10715,15339,0.072,551
2019-10-08T13:08:07,42.805,6.029,CST-1368DR,7654,10716,15341,0.071,551
2019-10-08T13:11:08,42.805,6.029,CST-1368DR,7654,10712,15335,0.073,551
2019-10-08T13:14:10,42.805,6.029,CST-1368DR,7654,10715,15340,0.071,550
2019-10-08T13:17:12,42.805,6.029,CST-1368DR,7654,10717,15342,0.071,551
2019-10-08T13:20:13,42.805,6.029,CST-1368DR,7654,10716,15341,0.071,550
2019-10-08T13:23:15,42.805,6.029,CST-1368DR,7654,10715,15340,0.071,551
2019-10-08T13:26:17,42.805,6.029,CST-1368DR,7654,10717,15342,0.071,551
2019-10-08T13:29:18,42.805,6.029,CST-1368DR,7654,10717,15342,0.071,551
2019-10-08T13:32:20,42.805,6.029,CST-1368DR,7654,10714,15338,0.072,551
2019-10-08T13:35:22,42.805,6.029,CST-1368DR,7654,10714,15338,0.072,551
2019-10-08T13:38:24,42.805,6.029,CST-1368DR,7654,10716,15340,0.071,551
2019-10-08T13:41:25,42.805,6.029,CST-1368DR,7654,10716,15340,0.071,551
2019-10-08T13:44:27,42.805,6.029,CST-1368DR,7654,10716,15341,0.071,551
2019-10-08T13:47:28,42.805,6.029,CST-1368DR,7654,10716,15341,0.071,551
2019-10-08T13:50:30,42.805,6.029,CST-1368DR,7654,10712,15335,0.073,551
2019-10-08T13:53:32,42.805,6.029,CST-1368DR,7654,10714,15338,0.072,551
2019-10-08T13:56:33,42.805,6.029,CST-1368DR,7654,10715,15339,0.072,551
2019-10-08T13:59:35,42.805,6.029,CST-1368DR,7654,10715,15339,0.072,551
2019-10-08T14:02:37,42.805,6.029,CST-1368DR,7654,10715,15340,0.071,551
2019-10-08T14:05:38,42.805,6.029,CST-1368DR,7654,10716,15340,0.071,551
2019-10-08T14:08:40,42.805,6.029,CST-1368DR,7654,10717,15342,0.071,551
2019-10-08T14:11:42,42.805,6.029,CST-1368DR,7654,10717,15342,0.071,551
2019-10-08T14:14:43,42.805,6.029,CST-1368DR,7654,10715,15339,0.072,551
2019-10-08T14:17:45,42.805,6.029,CST-1368DR,7654,10715,15340,0.071,551
2019-10-08T14:20:47,42.805,6.029,CST-1368DR,7654,10716,15341,0.071,551
2019-10-08T14:23:48,42.805,6.029,CST-1368DR,7654,10714,15338,0.072,551
2019-10-08T14:26:50,42.805,6.029,CST-1368DR,7654,10716,15341,0.071,551
2019-10-08T14:29:52,42.805,6.029,CST-1368DR,7654,10716,15341,0.071,551
2019-10-08T14:32:53,42.805,6.029,CST-1368DR,7654,10717,15342,0.071,551
2019-10-08T14:35:55,42.805,6.029,CST-1368DR,7654,10717,15343,0.071,551
2019-10-08T14:38:57,42.805,6.029,CST-1368DR,7654,10717,15342,0.071,551
2019-10-08T14:41:58,42.805,6.029,CST-1368DR,7654,10717,15343,0.071,551
2019-10-08T14:45:00,42.805,6.029,CST-1368DR,7654,10715,15339,0.072,551
2019-10-08T14:48:01,42.805,6.029,CST-1368DR,7654,10714,15338,0.072,551
2019-10-08T14:51:03,42.805,6.029,CST-1368DR,7653,10716,15342,0.071,551
2019-10-08T14:54:05,42.805,6.029,CST-1368DR,7653,10717,15343,0.071,551
2019-10-08T14:57:06,42.805,6.029,CST-1368DR,7654,10716,15341,0.071,551
2019-10-08T15:00:08,42.805,6.029,CST-1368DR,7654,10717,15342,0.071,550
2019-10-08T15:03:10,42.805,6.029,CST-1368DR,7653,10717,15343,0.071,551
2019-10-08T15:06:11,42.805,6.029,CST-1368DR,7654,10717,15342,0.071,551
2019-10-08T15:09:13,42.805,6.029,CST-1368DR,7653,10715,15342,0.071,551
2019-10-08T15:12:15,42.805,6.029,CST-1368DR,7654,10716,15341,0.071,551
2019-10-08T15:15:16,42.805,6.029,CST-1368DR,7653,10717,15345,0.070,551
2019-10-08T15:18:18,42.805,6.029,CST-1368DR,7653,10717,15344,0.070,551
2019-10-08T15:21:20,42.805,6.029,CST-1368DR,7653,10716,15342,0.071,551
2019-10-08T15:24:21,42.805,6.029,CST-1368DR,7654,10717,15342,0.071,551
2019-10-08T15:27:23,42.805,6.029,CST-1368DR,7653,10716,15342,0.071,551
2019-10-08T15:30:25,42.805,6.029,CST-1368DR,7653,10717,15345,0.070,551
2019-10-08T15:33:26,42.805,6.029,CST-1368DR,7653,10717,15344,0.070,551
2019-10-08T15:36:28,42.805,6.029,CST-1368DR,7653,10717,15344,0.070,551
2019-10-08T15:39:29,42.805,6.029,CST-1368DR,7654,10717,15342,0.071,551
2019-10-08T15:42:31,42.805,6.029,CST-1368DR,7653,10715,15341,0.071,551
2019-10-08T15:45:33,42.805,6.029,CST-1368DR,7653,10712,15337,0.072,551
2019-10-08T15:48:34,42.805,6.029,CST-1368DR,7653,10717,15345,0.070,551
2019-10-08T15:51:36,42.805,6.029,CST-1368DR,7653,10716,15343,0.071,551
2019-10-08T15:54:38,42.805,6.029,CST-1368DR,7653,10718,15345,0.070,551
2019-10-08T15:57:39,42.805,6.029,CST-1368DR,7653,10715,15341,0.071,551
2019-10-08T16:00:41,42.805,6.029,CST-1368DR,7653,10716,15342,0.071,551
2019-10-08T16:03:43,42.805,6.029,CST-1368DR,7653,10714,15340,0.071,551
2019-10-08T16:06:44,42.805,6.029,CST-1368DR,7653,10717,15345,0.070,551
2019-10-08T16:09:46,42.805,6.029,CST-1368DR,7653,10718,15345,0.070,551
2019-10-08T16:12:47,42.805,6.029,CST-1368DR,7653,10715,15341,0.071,551
2019-10-08T16:15:49,42.805,6.029,CST-1368DR,7653,10716,15342,0.071,551
2019-10-08T16:18:51,42.805,6.029,CST-1368DR,7653,10717,15343,0.071,551
2019-10-08T16:21:52,42.805,6.029,CST-1368DR,7653,10715,15341,0.071,551
2019-10-08T16:24:54,42.805,6.029,CST-1368DR,7653,10714,15340,0.071,551
2019-10-08T16:27:56,42.805,6.029,CST-1368DR,7653,10716,15343,0.071,551
2019-10-08T16:30:57,42.805,6.029,CST-1368DR,7653,10717,15344,0.070,551
2019-10-08T16:33:59,42.805,6.029,CST-1368DR,7653,10715,15342,0.071,551
2019-10-08T16:37:01,42.805,6.029,CST-1368DR,7653,10714,15340,0.071,551